SCP
0 -0 0 -0 0 0 0 0 0 0 0 0 -0 -0 0 -0 0 -0 -0 -0 0 0 0 0 -0 -0 0 0 0 0 0 0 0 1 1 0 0 1 1 1 1 1 1 1
0 0 0 0 0 0 -0 -0 0 0 0 0 -0 -0 -0 0 -0 -0 -0 -0 0 0 1 0 0 0 0 1 1 1 1 1 1 1 1 1 1 0 0 0 0 1 1 1
0 -0 0 0 -0 0 0 0 0 0 -0 -0 -0 -0 -0 -0 -0 -0 -0 0 0 0 0 0 0 0 0 1 1 0 0 0 0 1 1 1 1 1 1 1 1 0 0 1
0 0 0 0 0 0 0 0 0 0 -0 -0 0 0 -0 -0 -0 -0 1 1 1 0 0 0 0 0 0 0 0 0 0 0 0 0 0 0 0 0 0 1 1 1 1 1
0 0 0 0 0 0 0 0 0 0 0 0 -0 -0 -0 0 0 1 0 0 -0 0 0 0 0 0 0 0 0 0 0 0 0 0 0 0 0 0 0 0 0 0 0 0
0 0 0 0 0 0 0 0 0 0 0 0 1 2 3 -1 -1 -0 -0 -0 -0 0 0 0 0 0 0 0 0 0 0 0 0 0 0 0 0 0 0 0 0 0 0 0
0 0 0 0 0 0 0 0 0 0 0 0 1 1 0 -1 -0 -0 -0 -0 0 0 0 0 0 0 0 0 0 0 0 0 0 0 0 0 0 0 0 0 0 0 0 0
0 0 0 0 0 0 0 0 0 0 0 0 1 -0 -1 -1 -0 -0 -0 -0 -0 0 0 0 0 0 0 0 0 0 0 0 0 0 0 0 0 0 0 0 0 0 0 0
0 0 0 0 0 0 0 0 0 0 1 1 1 0 -0 -0 -0 0 -0 0 0 0 0 0 0 0 0 0 0 0 0 0 0 0 0 0 0 0 0 0 0 0 0 0
0 0 0 0 0 0 0 0 0 0 1 1 1 0 -0 -0 0 0 0 0 0 0 0 0 0 0 0 0 0 0 0 0 0 0 0 0 0 0 0 0 0 0 0 0
1 0 0 0 0 0 0 0 0 0 0 0 0 0 0 -0 -0 0 0 0 0 0 0 0 0 0 0 0 0 0 0 0 0 0 0 0 0 0 0 0 0 0 0 0
0 0 0 0 0 0 0 0 0 0 0 0 0 0 0 0 0 0 0 0 0 0 0 0 0 0 0 0 0 0 0 0 0 0 0 0 0 0 0 0 0 0 0 0
0 0 0 0 0 0 0 0 0 0 0 0 1 0 1 0 0 0 0 0 0 0 0 0 0 0 0 0 0 0 0 0 0 0 0 0 0 0 0 0 0 -0 -0 0
0 0 0 0 0 0 0 0 0 0 0 0 0 1 1 0 0 0 0 0 0 0 0 0 0 0 0 0 0 0 0 0 0 0 0 0 0 0 0 0 0 0 0 0
0 -0 0 0 0 0 0 0 0 0 0 0 1 1 0 0 0 0 0 0 0 0 0 0 0 0 0 0 0 0 0 0 0 0 0 0 0 0 0 0 0 0 -0 -0
0 0 -0 -0 0 0 0 0 0 0 1 1 1 1 1 1 0 0 0 0 0 0 0 0 0 0 0 0 0 0 0 0 0 0 0 0 0 0 0 0 0 0 0 -0
0 0 0 -0 0 0 0 0 0 0 1 1 1 1 0 0 0 0 0 0 0 0 0 0 0 0 0 0 0 0 0 0 0 0 0 0 0 0 0 0 0 0 0 -0
0 0 0 0 0 0 0 0 0 0 0 1 1 1 0 0 0 0 0 0 0 0 0 0 0 0 0 0 0 0 0 0 0 0 0 0 0 0 0 0 0 0 0 0
0 0 0 0 0 0 0 0 0 0 0 0 1 0 0 0 0 0 0 0 0 0 0 0 0 0 0 0 0 0 0 0 0 0 0 0 0 0 0 0 0 0 0 0
0 0 0 0 0 0 0 0 0 0 0 0 1 0 0 0 0 0 0 0 0 0 0 0 0 0 0 0 0 0 0 0 0 0 0 0 0 0 0 0 0 0 0 0
0 0 0 0 0 0 0 0 0 0 0 1 1 0 0 0 0 0 0 0 0 0 0 0 0 0 0 0 0 0 0 0 0 0 0 0 0 0 0 0 0 0 0 0
0 0 0 0 0 0 0 0 0 0 2 1 1 1 0 0 0 0 0 0 0 0 0 0 0 0 0 0 0 0 0 0 0 0 0 0 0 0 0 0 0 0 0 0
-0 0 0 0 0 0 0 0 0 0 3 2 1 0 0 0 0 0 0 0 0 0 0 0 0 0 0 0 0 0 0 0 0 0 0 0 0 0 0 0 0 0 0 0
-0 -0 0 0 0 0 0 0 0 0 2 1 1 0 0 0 0 0 0 0 0 0 0 0 0 0 0 0 0 0 0 0 0 0 0 0 0 0 0 0 0 0 0 0
-0 -0 0 0 0 0 0 -0 0 0 1 0 0 0 0 0 0 0 0 0 0 0 0 0 0 -0 0 0 -0 -0 -0 0 0 0 0 0 0 0 0 0 0 0 0 0
-0 -0 0 0 0 0 0 -0 0 0 1 0 0 0 0 0 0 0 0 0 0 0 0 -0 0 -0 -0 -0 -0 -0 -0 -0 0 0 0 0 0 0 0 0 0 0 0 0
-0 0 0 0 0 0 0 0 0 0 0 0 0 0 0 0 0 0 0 0 0 0 -0 -0 -0 -0 -0 -0 -0 0 0 0 0 0 0 0 0 0 0 0 0 0 0 0
Wind_Speed_500mb
19 22 27 13 10 16 11 10 7 18 30 34 42 40 53 59 42 14 10 45 37 38 37 36 40 32 37 39 29 27 28 20 15 24 32 20 24 27 28 29 37 37 37 40
13 20 19 10 19 7 12 9 5 14 17 32 48 31 59 63 49 36 33 44 49 40 37 39 35 24 23 19 17 20 21 17 18 23 28 30 32 34 36 36 38 38 36 38
13 17 12 6 17 6 8 12 12 12 15 43 32 36 56 54 65 65 45 54 49 45 37 33 27 20 17 16 14 13 14 15 15 20 20 20 18 22 25 24 30 35 35 31
10 8 5 15 9 9 9 2 12 6 46 59 71 89 81 68 77 39 71 59 52 50 42 33 28 22 19 14 10 8 8 8 7 7 9 14 18 19 16 16 18 18 25 32
5 4 10 14 11 16 10 12 11 9 12 64 61 48 35 66 66 76 73 63 58 56 48 40 25 18 13 9 7 5 4 7 10 13 15 16 17 20 23 25 25 25 24 27
7 6 11 14 10 18 9 8 13 19 13 41 55 26 17 81 82 77 65 63 58 45 36 25 19 13 9 6 4 2 8 14 18 20 20 18 19 22 26 27 28 31 33 32
11 10 12 10 6 28 9 13 9 26 45 52 17 49 73 80 71 68 66 54 42 35 30 22 15 10 6 3 6 13 16 15 15 17 11 11 19 18 16 18 20 19 18 16
8 11 25 4 13 2 16 20 14 15 23 39 64 84 83 75 73 70 63 50 41 44 39 35 26 16 9 9 13 14 11 9 12 15 16 22 23 21 23 20 14 15 14 9
12 12 12 15 27 50 8 20 24 39 49 57 80 86 86 80 78 71 64 58 48 34 24 17 16 8 6 8 12 7 9 14 20 22 19 23 22 20 16 20 22 26 29 28
15 19 14 34 37 66 34 29 31 31 55 64 91 93 85 81 72 60 47 40 30 20 20 15 7 1 7 11 7 5 10 17 15 9 8 8 9 7 16 18 27 34 34 36
10 35 44 33 47 27 38 17 14 16 51 71 98 95 90 79 69 56 46 39 23 26 24 14 7 6 6 8 5 7 16 5 4 12 12 11 10 7 8 15 26 28 36 36
15 35 20 40 65 7 52 21 19 10 10 71 96 91 89 79 71 70 66 52 46 43 27 13 9 6 5 8 4 11 9 6 11 20 14 13 13 3 6 14 17 21 25 28
21 53 46 42 49 45 42 30 25 21 17 30 85 97 93 92 86 75 64 57 49 35 24 15 13 7 3 7 12 17 18 18 13 25 27 24 25 26 23 21 23 23 19 19
51 49 52 48 53 56 41 23 9 15 19 18 80 91 99 96 87 77 65 52 40 30 21 15 10 7 16 16 19 19 18 12 14 17 18 20 25 22 18 20 27 21 21 25
33 20 41 51 47 49 52 48 9 10 17 14 87 101 100 93 80 66 55 45 37 28 22 16 13 17 19 25 25 17 18 14 17 13 23 19 19 14 17 20 21 18 32 39
45 38 17 38 46 38 57 44 55 41 19 58 93 99 96 85 75 63 52 44 39 33 24 18 21 22 28 24 12 14 12 20 15 19 14 16 12 20 16 23 17 21 29 39
35 41 43 17 39 48 39 44 39 38 30 84 100 95 87 74 62 57 47 39 30 27 22 20 24 24 35 27 26 18 11 12 13 16 25 18 18 16 10 12 25 28 28 35
22 20 21 33 33 52 37 37 32 33 7 72 77 72 73 68 69 63 56 43 38 29 25 23 23 22 35 29 25 24 13 22 22 14 8 20 20 16 26 26 17 22 23 27
18 21 20 25 24 9 40 27 33 32 7 48 62 68 69 63 63 56 48 46 42 37 33 28 22 20 27 30 22 28 22 14 15 15 15 13 14 13 18 23 25 22 25 27
16 17 12 19 33 34 8 45 40 35 6 54 64 55 58 56 49 46 47 43 37 24 31 34 26 23 29 31 25 20 9 9 12 6 15 14 15 13 18 23 27 30 32 31
33 28 29 24 29 28 18 16 4 36 23 40 61 65 66 61 52 51 51 46 42 31 29 33 33 34 36 32 23 18 13 13 11 9 13 14 18 9 18 27 28 30 27 29
37 41 34 37 34 32 26 25 16 12 19 42 68 80 78 69 59 53 47 42 44 41 33 38 30 28 30 22 21 19 13 10 8 10 15 14 19 21 28 30 27 29 33 33
29 40 44 43 54 46 38 29 21 10 7 56 74 82 73 63 59 64 57 43 30 39 34 39 32 27 34 24 20 13 15 7 4 6 14 19 20 19 21 25 30 33 34 38
46 62 57 53 46 40 50 45 33 11 18 60 73 73 61 49 53 53 46 42 33 44 42 35 24 28 38 28 21 16 14 8 13 9 14 17 13 16 23 25 32 35 38 38
55 44 48 53 51 48 54 56 50 31 31 60 68 64 58 55 68 58 46 42 49 47 37 32 25 23 23 24 21 19 15 16 12 17 26 19 11 17 21 26 31 34 37 40
57 56 57 55 58 41 42 41 42 33 64 72 66 56 55 62 56 48 39 44 50 41 35 32 28 24 22 18 14 11 12 15 20 24 20 12 12 14 16 25 36 34 41 47
56 51 56 54 43 39 39 39 33 55 78 80 67 65 65 57 52 49 43 42 46 38 36 35 29 19 15 13 13 13 19 23 31 20 12 6 15 18 26 35 37 33 40 50
Wind_Direction_500mb
296 178 229 238 306 321 347 324 86 170 152 178 179 176 189 214 223 222 289 145 134 132 130 130 125 126 152 164 171 156 175 179 145 173 213 218 208 223 248 255 247 249 261 268
296 291 284 255 280 237 265 270 293 164 160 182 181 184 174 210 206 232 281 152 150 147 145 134 147 150 155 160 172 193 213 225 228 220 220 233 241 248 255 258 257 256 258 261
256 267 298 23 284 2 17 43 73 51 156 166 178 189 204 206 209 225 242 157 148 147 149 152 164 179 184 197 209 213 221 233 248 258 253 250 257 265 262 269 272 265 262 268
241 326 310 250 313 9 320 20 6 28 148 171 177 192 197 196 195 197 135 140 146 146 145 149 153 159 157 166 186 215 248 268 271 266 261 256 260 267 268 261 266 281 269 262
133 259 256 301 322 50 88 347 8 45 47 172 186 193 205 211 181 147 141 144 147 149 147 149 159 166 171 169 184 202 251 291 296 290 287 281 271 263 261 263 271 273 274 277
294 216 240 247 307 123 105 338 319 343 177 141 120 107 124 129 137 135 139 148 145 149 154 163 154 170 173 168 183 242 295 299 298 299 303 302 292 292 292 289 286 280 276 282
246 238 260 191 348 332 109 215 41 28 133 144 134 147 141 135 134 142 148 142 145 151 147 139 139 158 181 231 290 307 309 306 309 322 336 319 337 341 4 32 32 23 10 356
260 281 288 305 327 83 235 142 115 118 119 136 129 132 137 137 140 142 143 146 159 153 151 158 168 195 231 285 310 318 323 345 357 16 34 22 24 48 37 28 31 12 359 22
188 218 199 312 327 279 145 155 109 122 134 130 130 134 138 142 145 145 148 152 159 167 160 161 167 194 268 320 336 359 26 36 51 36 24 18 24 22 2 338 335 338 330 314
24 352 288 205 274 323 118 107 116 127 149 150 140 143 146 146 147 147 152 163 165 169 166 150 141 333 332 328 356 57 60 66 24 50 72 359 336 35 354 8 360 8 24 18
336 11 0 78 158 203 295 147 109 129 151 158 152 153 157 155 154 152 159 166 172 171 167 171 199 241 283 302 329 72 103 54 315 285 285 273 285 337 47 20 5 37 35 29
320 0 345 323 344 240 219 165 171 174 147 166 162 156 162 158 154 155 157 160 168 173 188 207 224 243 278 306 11 130 115 11 17 16 358 350 359 359 95 23 51 14 2 18
340 343 340 344 335 6 7 173 181 209 193 159 169 165 165 158 161 164 166 169 175 191 200 198 216 232 286 96 105 116 82 67 46 9 40 35 40 83 68 44 17 1 358 1
308 321 326 341 337 344 348 357 99 158 159 180 167 159 161 162 161 166 170 176 177 178 176 188 196 169 113 108 102 92 73 93 57 40 28 62 73 51 38 27 18 17 22 6
318 299 297 305 316 346 354 9 346 214 218 183 159 161 164 159 162 166 168 166 166 169 173 185 179 145 119 106 96 65 41 61 71 50 49 65 39 27 32 17 11 357 349 348
285 296 306 302 291 322 346 356 10 27 165 152 160 158 159 161 160 161 163 168 163 166 175 174 158 139 130 117 139 176 46 90 74 40 50 45 59 53 54 33 47 7 6 2
274 267 275 271 276 271 326 349 6 20 132 156 152 157 159 156 159 160 159 160 161 166 176 183 163 148 147 128 117 117 91 103 121 75 52 62 58 51 31 19 42 20 5 360
340 334 324 263 255 247 254 345 10 6 109 147 146 156 160 164 165 162 164 163 171 176 184 181 168 155 161 159 157 165 147 92 91 97 59 63 49 28 15 24 18 12 5 8
295 337 347 356 344 268 239 266 339 355 354 181 173 183 175 169 167 167 166 168 179 183 187 180 164 152 160 166 142 113 113 136 126 82 74 66 33 29 18 16 10 350 354 354
352 353 345 3 11 25 350 238 285 293 347 169 171 184 181 172 172 170 173 177 184 176 174 171 162 147 154 149 136 129 121 148 167 88 18 36 22 1 3 6 353 339 342 342
336 317 312 341 338 343 351 41 317 295 316 173 187 199 195 183 182 178 172 169 175 170 166 163 141 146 140 144 147 142 143 136 100 28 343 37 25 42 2 351 345 347 347 342
321 315 295 283 305 307 306 314 351 360 344 186 186 191 187 178 177 175 183 179 173 180 177 169 164 162 155 140 139 165 169 145 123 45 91 27 1 341 338 342 341 338 337 334
296 301 296 266 275 283 280 279 293 320 296 196 187 185 179 177 178 173 177 181 179 172 171 173 169 171 170 162 166 182 148 178 173 335 300 319 344 333 345 343 339 343 343 346
286 296 278 259 249 261 264 260 274 275 218 192 185 186 193 194 185 184 185 172 175 173 169 169 172 180 179 186 185 171 179 222 289 267 279 316 337 320 338 340 343 344 340 343
292 278 262 251 235 240 244 253 262 254 223 203 191 192 187 178 178 182 173 171 174 174 166 174 180 179 188 201 191 189 217 259 267 278 269 305 297 301 321 328 339 342 338 333
283 268 267 248 236 245 251 257 245 251 196 191 181 178 172 173 178 174 173 175 176 174 173 162 158 164 169 166 177 200 215 245 279 278 256 315 273 298 319 329 339 339 332 328
271 264 253 249 245 243 238 236 253 194 195 189 176 171 172 171 174 177 173 169 174 175 170 169 174 183 199 216 236 261 262 261 288 231 280 245 262 301 318 321 328 332 322 321
Wind_Speed_850mb
19 22 27 13 10 16 11 10 7 18 30 34 42 40 53 59 42 14 10 45 37 38 37 36 40 32 37 39 29 27 28 20 15 24 32 20 24 27 28 29 37 37 37 40
13 20 19 10 19 7 12 9 5 14 17 32 48 31 59 63 49 36 33 44 49 40 37 39 35 24 23 19 17 20 21 17 18 23 28 30 32 34 36 36 38 38 36 38
13 17 12 6 17 6 8 12 12 12 15 43 32 36 56 54 65 65 45 54 49 45 37 33 27 20 17 16 14 13 14 15 15 20 20 20 18 22 25 24 30 35 35 31
10 8 5 15 9 9 9 2 12 6 46 59 71 89 81 68 77 39 71 59 52 50 42 33 28 22 19 14 10 8 8 8 7 7 9 14 18 19 16 16 18 18 25 32
5 4 10 14 11 16 10 12 11 9 12 64 61 48 35 66 66 76 73 63 58 56 48 40 25 18 13 9 7 5 4 7 10 13 15 16 17 20 23 25 25 25 24 27
7 6 11 14 10 18 9 8 13 19 13 41 55 26 17 81 82 77 65 63 58 45 36 25 19 13 9 6 4 2 8 14 18 20 20 18 19 22 26 27 28 31 33 32
11 10 12 10 6 28 9 13 9 26 45 52 17 49 73 80 71 68 66 54 42 35 30 22 15 10 6 3 6 13 16 15 15 17 11 11 19 18 16 18 20 19 18 16
8 11 25 4 13 2 16 20 14 15 23 39 64 84 83 75 73 70 63 50 41 44 39 35 26 16 9 9 13 14 11 9 12 15 16 22 23 21 23 20 14 15 14 9
12 12 12 15 27 50 8 20 24 39 49 57 80 86 86 80 78 71 64 58 48 34 24 17 16 8 6 8 12 7 9 14 20 22 19 23 22 20 16 20 22 26 29 28
15 19 14 34 37 66 34 29 31 31 55 64 91 93 85 81 72 60 47 40 30 20 20 15 7 1 7 11 7 5 10 17 15 9 8 8 9 7 16 18 27 34 34 36
10 35 44 33 47 27 38 17 14 16 51 71 98 95 90 79 69 56 46 39 23 26 24 14 7 6 6 8 5 7 16 5 4 12 12 11 10 7 8 15 26 28 36 36
15 35 20 40 65 7 52 21 19 10 10 71 96 91 89 79 71 70 66 52 46 43 27 13 9 6 5 8 4 11 9 6 11 20 14 13 13 3 6 14 17 21 25 28
21 53 46 42 49 45 42 30 25 21 17 30 85 97 93 92 86 75 64 57 49 35 24 15 13 7 3 7 12 17 18 18 13 25 27 24 25 26 23 21 23 23 19 19
51 49 52 48 53 56 41 23 9 15 19 18 80 91 99 96 87 77 65 52 40 30 21 15 10 7 16 16 19 19 18 12 14 17 18 20 25 22 18 20 27 21 21 25
33 20 41 51 47 49 52 48 9 10 17 14 87 101 100 93 80 66 55 45 37 28 22 16 13 17 19 25 25 17 18 14 17 13 23 19 19 14 17 20 21 18 32 39
45 38 17 38 46 38 57 44 55 41 19 58 93 99 96 85 75 63 52 44 39 33 24 18 21 22 28 24 12 14 12 20 15 19 14 16 12 20 16 23 17 21 29 39
35 41 43 17 39 48 39 44 39 38 30 84 100 95 87 74 62 57 47 39 30 27 22 20 24 24 35 27 26 18 11 12 13 16 25 18 18 16 10 12 25 28 28 35
22 20 21 33 33 52 37 37 32 33 7 72 77 72 73 68 69 63 56 43 38 29 25 23 23 22 35 29 25 24 13 22 22 14 8 20 20 16 26 26 17 22 23 27
18 21 20 25 24 9 40 27 33 32 7 48 62 68 69 63 63 56 48 46 42 37 33 28 22 20 27 30 22 28 22 14 15 15 15 13 14 13 18 23 25 22 25 27
16 17 12 19 33 34 8 45 40 35 6 54 64 55 58 56 49 46 47 43 37 24 31 34 26 23 29 31 25 20 9 9 12 6 15 14 15 13 18 23 27 30 32 31
33 28 29 24 29 28 18 16 4 36 23 40 61 65 66 61 52 51 51 46 42 31 29 33 33 34 36 32 23 18 13 13 11 9 13 14 18 9 18 27 28 30 27 29
37 41 34 37 34 32 26 25 16 12 19 42 68 80 78 69 59 53 47 42 44 41 33 38 30 28 30 22 21 19 13 10 8 10 15 14 19 21 28 30 27 29 33 33
29 40 44 43 54 46 38 29 21 10 7 56 74 82 73 63 59 64 57 43 30 39 34 39 32 27 34 24 20 13 15 7 4 6 14 19 20 19 21 25 30 33 34 38
46 62 57 53 46 40 50 45 33 11 18 60 73 73 61 49 53 53 46 42 33 44 42 35 24 28 38 28 21 16 14 8 13 9 14 17 13 16 23 25 32 35 38 38
55 44 48 53 51 48 54 56 50 31 31 60 68 64 58 55 68 58 46 42 49 47 37 32 25 23 23 24 21 19 15 16 12 17 26 19 11 17 21 26 31 34 37 40
57 56 57 55 58 41 42 41 42 33 64 72 66 56 55 62 56 48 39 44 50 41 35 32 28 24 22 18 14 11 12 15 20 24 20 12 12 14 16 25 36 34 41 47
56 51 56 54 43 39 39 39 33 55 78 80 67 65 65 57 52 49 43 42 46 38 36 35 29 19 15 13 13 13 19 23 31 20 12 6 15 18 26 35 37 33 40 50
Wind_Direction_850mb
296 178 229 238 306 321 347 324 86 170 152 178 179 176 189 214 223 222 289 145 134 132 130 130 125 126 152 164 171 156 175 179 145 173 213 218 208 223 248 255 247 249 261 268
296 291 284 255 280 237 265 270 293 164 160 182 181 184 174 210 206 232 281 152 150 147 145 134 147 150 155 160 172 193 213 225 228 220 220 233 241 248 255 258 257 256 258 261
256 267 298 23 284 2 17 43 73 51 156 166 178 189 204 206 209 225 242 157 148 147 149 152 164 179 184 197 209 213 221 233 248 258 253 250 257 265 262 269 272 265 262 268
241 326 310 250 313 9 320 20 6 28 148 171 177 192 197 196 195 197 135 140 146 146 145 149 153 159 157 166 186 215 248 268 271 266 261 256 260 267 268 261 266 281 269 262
133 259 256 301 322 50 88 347 8 45 47 172 186 193 205 211 181 147 141 144 147 149 147 149 159 166 171 169 184 202 251 291 296 290 287 281 271 263 261 263 271 273 274 277
294 216 240 247 307 123 105 338 319 343 177 141 120 107 124 129 137 135 139 148 145 149 154 163 154 170 173 168 183 242 295 299 298 299 303 302 292 292 292 289 286 280 276 282
246 238 260 191 348 332 109 215 41 28 133 144 134 147 141 135 134 142 148 142 145 151 147 139 139 158 181 231 290 307 309 306 309 322 336 319 337 341 4 32 32 23 10 356
260 281 288 305 327 83 235 142 115 118 119 136 129 132 137 137 140 142 143 146 159 153 151 158 168 195 231 285 310 318 323 345 357 16 34 22 24 48 37 28 31 12 359 22
188 218 199 312 327 279 145 155 109 122 134 130 130 134 138 142 145 145 148 152 159 167 160 161 167 194 268 320 336 359 26 36 51 36 24 18 24 22 2 338 335 338 330 314
24 352 288 205 274 323 118 107 116 127 149 150 140 143 146 146 147 147 152 163 165 169 166 150 141 333 332 328 356 57 60 66 24 50 72 359 336 35 354 8 360 8 24 18
336 11 0 78 158 203 295 147 109 129 151 158 152 153 157 155 154 152 159 166 172 171 167 171 199 241 283 302 329 72 103 54 315 285 285 273 285 337 47 20 5 37 35 29
320 0 345 323 344 240 219 165 171 174 147 166 162 156 162 158 154 155 157 160 168 173 188 207 224 243 278 306 11 130 115 11 17 16 358 350 359 359 95 23 51 14 2 18
340 343 340 344 335 6 7 173 181 209 193 159 169 165 165 158 161 164 166 169 175 191 200 198 216 232 286 96 105 116 82 67 46 9 40 35 40 83 68 44 17 1 358 1
308 321 326 341 337 344 348 357 99 158 159 180 167 159 161 162 161 166 170 176 177 178 176 188 196 169 113 108 102 92 73 93 57 40 28 62 73 51 38 27 18 17 22 6
318 299 297 305 316 346 354 9 346 214 218 183 159 161 164 159 162 166 168 166 166 169 173 185 179 145 119 106 96 65 41 61 71 50 49 65 39 27 32 17 11 357 349 348
285 296 306 302 291 322 346 356 10 27 165 152 160 158 159 161 160 161 163 168 163 166 175 174 158 139 130 117 139 176 46 90 74 40 50 45 59 53 54 33 47 7 6 2
274 267 275 271 276 271 326 349 6 20 132 156 152 157 159 156 159 160 159 160 161 166 176 183 163 148 147 128 117 117 91 103 121 75 52 62 58 51 31 19 42 20 5 360
340 334 324 263 255 247 254 345 10 6 109 147 146 156 160 164 165 162 164 163 171 176 184 181 168 155 161 159 157 165 147 92 91 97 59 63 49 28 15 24 18 12 5 8
295 337 347 356 344 268 239 266 339 355 354 181 173 183 175 169 167 167 166 168 179 183 187 180 164 152 160 166 142 113 113 136 126 82 74 66 33 29 18 16 10 350 354 354
352 353 345 3 11 25 350 238 285 293 347 169 171 184 181 172 172 170 173 177 184 176 174 171 162 147 154 149 136 129 121 148 167 88 18 36 22 1 3 6 353 339 342 342
336 317 312 341 338 343 351 41 317 295 316 173 187 199 195 183 182 178 172 169 175 170 166 163 141 146 140 144 147 142 143 136 100 28 343 37 25 42 2 351 345 347 347 342
321 315 295 283 305 307 306 314 351 360 344 186 186 191 187 178 177 175 183 179 173 180 177 169 164 162 155 140 139 165 169 145 123 45 91 27 1 341 338 342 341 338 337 334
296 301 296 266 275 283 280 279 293 320 296 196 187 185 179 177 178 173 177 181 179 172 171 173 169 171 170 162 166 182 148 178 173 335 300 319 344 333 345 343 339 343 343 346
286 296 278 259 249 261 264 260 274 275 218 192 185 186 193 194 185 184 185 172 175 173 169 169 172 180 179 186 185 171 179 222 289 267 279 316 337 320 338 340 343 344 340 343
292 278 262 251 235 240 244 253 262 254 223 203 191 192 187 178 178 182 173 171 174 174 166 174 180 179 188 201 191 189 217 259 267 278 269 305 297 301 321 328 339 342 338 333
283 268 267 248 236 245 251 257 245 251 196 191 181 178 172 173 178 174 173 175 176 174 173 162 158 164 169 166 177 200 215 245 279 278 256 315 273 298 319 329 339 339 332 328
271 264 253 249 245 243 238 236 253 194 195 189 176 171 172 171 174 177 173 169 174 175 170 169 174 183 199 216 236 261 262 261 288 231 280 245 262 301 318 321 328 332 322 321